sat.trackr.live / text

‹ back to catalog

SDA_1668

NORAD 65978 · 2025-230E

PAYLOAD ACTIVE UNKNOWN

§ Identity

Operator
Country
US
Launch date
2025-10-15
Launch site
AFWTR
Launch vehicle
Mass (kg)
RCS (m²)

External: N2YO · Heavens-Above · Gunter

§ Orbital elements

Epoch: 2026-09-20T21:03:10.756512Z

Period
104.03 min
Inclination
81.2979°
Eccentricity
0.0002608
Mean motion
13.84245304 rev/d
Perigee alt
947.0 km
Apogee alt
950.8 km
Semi-major
7,327.0 km
B*
1.2411e-4
RAAN
122.8442°
Arg perigee
338.8385°
Mean anomaly
21.2663°
Rev number
4,706

§ Raw data

SDA_16681 65978U 25230E   26263.87720783  .00000150  00000+0  12411-3 0  99952 65978  81.2979 122.8442 0002608 338.8385  21.2663 13.84245304 47061

JSON: /api/v1/satellites/65978 · /tle

For live sub-satellite position, see the globe view (requires WebGL).

§ Visibility from observer

Set your observer location to see the next 7 days of passes ≥ 10°. The values pass through the URL so the page stays shareable.

No JS? Fill the form by hand. The geolocation button needs JavaScript.